Location: Newark
(26.0814°N, 97.8289°W)
Time: 13:17:24
(UTC+00:00)

LightSail 2 - Pass Details

Date: 28 January 2020
Orbit: 697 x 724 km, 24.0° (Epoch: 29 February)

Event Time Altitude Azimuth Distance (km) Brightness Sun altitude
Rises 01:19:23 0° 271° (W) 3,070 10.0 -15.6°
Reaches altitude 10° 01:21:56 10° 263° (W) 2,156 9.0 -16.2°
Maximum altitude 01:26:37 37° 196° (SSW) 1,080 6.3 -17.2°
Enters shadow 01:30:29 14° 134° (SE) 1,887 7.0 -18.1°
